CW7563 Weather Reports


Display with metric or nautical units.
time (UTC)temp
F
wind
direction
speed
MPH
gust
MPH
rain 1hr
in
rain 24hr
in
rain mn
in
humidity
%
barometer
mb
20260503212807 89 56 2.0 5.0 0.00 0.00 0.00 29 1007.8
20260503212306 89 75 2.0 9.0 0.00 0.00 0.00 30 1007.9
20260503211806 88 357 5.0 10.0 0.00 0.00 0.00 29 1007.9
20260503211306 88 56 4.0 9.0 0.00 0.00 0.00 30 1007.9
20260503210307 88 96 3.0 6.0 0.00 0.00 0.00 30 1008.1
20260503205807 88 25 3.0 9.0 0.00 0.00 0.00 30 1008.2
20260503205307 88 55 2.0 6.0 0.00 0.00 0.00 33 1008.2
20260503204807 87 56 3.0 9.0 0.00 0.00 0.00 32 1008.3
20260503204306 88 34 2.0 6.0 0.00 0.00 0.00 32 1008.4
20260503203806 87 59 2.0 6.0 0.00 0.00 0.00 33 1008.5
20260503203306 86 23 3.0 8.0 0.00 0.00 0.00 33 1008.5
20260503202806 86 41 4.0 7.0 0.00 0.00 0.00 34 1008.6
20260503201806 86 43 2.0 7.0 0.00 0.00 0.00 35 1008.7
20260503201307 85 54 3.0 7.0 0.00 0.00 0.00 37 1008.8
20260503200806 85 1 5.0 8.0 0.00 0.00 0.00 34 1008.8
20260503195306 84 349 5.0 9.0 0.00 0.00 0.00 37 1009.0
20260503194806 84 348 3.0 8.0 0.00 0.00 0.00 38 1009.0
20260503193806 83 14 2.0 3.0 0.00 0.00 0.00 39 1009.0
20260503193306 83 348 2.0 5.0 0.00 0.00 0.00 37 1009.2
20260503192806 83 38 1.0 5.0 0.00 0.00 0.00 41 1009.3
20260503192307 83 102 2.0 3.0 0.00 0.00 0.00 40 1009.4
20260503191806 82 50 2.0 3.0 0.00 0.00 0.00 41 1009.4
20260503190806 82 55 1.0 3.0 0.00 0.00 0.00 43 1009.5
20260503190306 81 86 2.0 5.0 0.00 0.00 0.00 43 1009.7
20260503185806 81 66 2.0 5.0 0.00 0.00 0.00 44 1009.7
20260503185306 80 45 3.0 5.0 0.00 0.00 0.00 45 1009.9
20260503184806 79 23 3.0 5.0 0.00 0.00 0.00 46 1009.9
20260503184306 79 6 3.0 6.0 0.00 0.00 0.00 45 1009.9
20260503183806 79 53 4.0 9.0 0.00 0.00 0.00 47 1010.0
20260503182806 78 71 2.0 5.0 0.00 0.00 0.00 48 1010.1
20260503182306 77 51 2.0 9.0 0.00 0.00 0.00 49 1010.1
20260503181806 76 44 3.0 5.0 0.00 0.00 0.00 49 1010.2
20260503181307 77 134 2.0 6.0 0.00 0.00 0.00 49 1010.2
20260503180806 76 68 2.0 5.0 0.00 0.00 0.00 50 1010.2
20260503180306 76 43 2.0 5.0 0.00 0.00 0.00 50 1010.3
20260503175806 76 40 3.0 8.0 0.00 0.00 0.00 51 1010.3
20260503175306 76 76 3.0 10.0 0.00 0.00 0.00 51 1010.3
20260503174806 75 28 3.0 9.0 0.00 0.00 0.00 52 1010.4
20260503174306 74 38 2.0 5.0 0.00 0.00 0.00 52 1010.4
20260503173806 75 46 2.0 7.0 0.00 0.00 0.00 53 1010.4
20260503173306 74 94 2.0 6.0 0.00 0.00 0.00 54 1010.5
20260503172806 74 84 3.0 6.0 0.00 0.00 0.00 53 1010.5
20260503172306 73 83 4.0 8.0 0.00 0.00 0.00 53 1010.5
20260503171806 73 68 3.0 7.0 0.00 0.00 0.00 54 1010.6
20260503171305 73 62 3.0 8.0 0.00 0.00 0.00 54 1010.6
20260503170806 73 47 3.0 10.0 0.00 0.00 0.00 55 1010.8
20260503170306 73 26 3.0 8.0 0.00 0.00 0.00 57 1010.7
20260503150306 60 341 2.0 3.0 0.00 0.00 0.00 86 1011.2
20260503131305 52 183 0.0 0.0 0.00 0.00 0.00 95 1010.8
20260503130806 52 183 0.0 0.0 0.00 0.00 0.00 95 1010.8
20260503130305 52 183 0.0 0.0 0.00 0.00 0.00 95 1010.7
20260503110305 52 171 0.0 0.0 0.00 0.00 0.00 94 1011.0
20260503090305 54 171 0.0 1.0 0.00 0.00 0.00 92 1011.4
20260503081305 55 171 2.0 3.0 0.00 0.00 0.00 91 1011.5
20260503080805 55 171 1.0 2.0 0.00 0.00 0.00 91 1011.5
20260503080306 55 171 0.0 3.0 0.00 0.00 0.00 91 1011.5
20260503072306 56 171 0.0 1.0 0.00 0.00 0.00 90 1011.5
20260503071804 56 171 1.0 2.0 0.00 0.00 0.00 89 1011.6
20260503071305 57 171 1.0 2.0 0.00 0.00 0.00 89 1011.6
20260503070818 57 171 2.0 3.0 0.00 0.00 0.00 89 1011.6
20260503070305 57 171 0.0 2.0 0.00 0.00 0.00 88 1011.6
20260503060304 59 171 1.0 2.0 0.00 0.00 0.00 85 1011.6
20260503054805 60 155 1.0 2.0 0.00 0.00 0.00 84 1011.8
20260503054305 60 155 0.0 3.0 0.00 0.00 0.00 84 1011.6
20260503053805 60 155 2.0 3.0 0.00 0.00 0.00 83 1011.7
20260503053304 61 155 1.0 3.0 0.00 0.00 0.00 82 1011.7
20260503052805 61 158 2.0 3.0 0.00 0.00 0.00 82 1011.6
20260503052306 61 219 2.0 3.0 0.00 0.00 0.00 81 1011.5
20260503051804 62 349 1.0 2.0 0.00 0.00 0.00 80 1011.5
20260503051305 62 349 0.0 2.0 0.00 0.00 0.00 79 1011.5
20260503050805 63 348 1.0 2.0 0.00 0.00 0.00 79 1011.5
20260503050304 63 348 2.0 3.0 0.00 0.00 0.00 79 1011.5
20260503045805 63 5 1.0 3.0 0.00 0.00 0.00 78 1011.6
20260503045305 63 5 2.0 3.0 0.00 0.00 0.00 78 1011.5
20260503044804 63 19 2.0 3.0 0.00 0.00 0.00 78 1011.6
20260503044305 63 40 1.0 3.0 0.00 0.00 0.00 77 1011.8
20260503043804 63 40 2.0 3.0 0.00 0.00 0.00 77 1011.5
20260503043304 63 341 1.0 3.0 0.00 0.00 0.00 77 1011.3
20260503042804 63 340 2.0 3.0 0.00 0.00 0.00 77 1011.3
20260503041805 64 348 2.0 3.0 0.00 0.00 0.00 77 1011.3
20260503041305 63 355 2.0 3.0 0.00 0.00 0.00 77 1011.2
20260503040805 63 348 1.0 3.0 0.00 0.00 0.00 78 1011.2
20260503040304 63 355 2.0 3.0 0.00 0.00 0.00 78 1011.1
20260503035805 63 356 3.0 3.0 0.00 0.00 0.00 78 1011.2
20260503035305 63 73 2.0 3.0 0.00 0.00 0.00 78 1011.3
20260503034806 63 74 1.0 2.0 0.00 0.00 0.00 78 1011.3
20260503033804 63 311 1.0 1.0 0.00 0.00 0.00 78 1011.3
20260503033305 64 311 0.0 1.0 0.00 0.00 0.00 77 1011.2
20260503032308 64 311 1.0 2.0 0.00 0.00 0.00 76 1011.0
20260503031807 64 311 1.0 2.0 0.00 0.00 0.00 75 1011.0
20260503031307 65 311 0.0 1.0 0.00 0.00 0.00 74 1011.0
20260503030807 65 311 1.0 3.0 0.00 0.00 0.00 74 1010.9
20260503030307 65 312 2.0 3.0 0.00 0.00 0.00 74 1010.8
20260503025807 65 0 2.0 3.0 0.00 0.00 0.00 74 1010.9
20260503025307 65 298 1.0 3.0 0.00 0.00 0.00 74 1010.9
20260503024807 65 298 1.0 3.0 0.00 0.00 0.00 73 1011.1
20260503024307 65 228 2.0 3.0 0.00 0.00 0.00 73 1011.2
20260503023307 65 224 1.0 3.0 0.00 0.00 0.00 73 1011.1
20260503022807 65 148 2.0 9.0 0.00 0.00 0.00 73 1011.3
20260503022307 65 172 5.0 12.0 0.00 0.00 0.00 73 1011.5
20260503021307 65 163 6.0 12.0 0.00 0.00 0.00 72 1011.7
20260503020307 66 177 8.0 16.0 0.00 0.00 0.00 72 1011.7
20260503015307 66 176 7.0 12.0 0.00 0.00 0.00 73 1011.7
20260503014807 66 180 4.0 7.0 0.00 0.00 0.00 72 1011.2
20260503014307 67 145 5.0 10.0 0.00 0.00 0.00 72 1011.0
20260503013807 67 185 3.0 9.0 0.00 0.00 0.00 72 1010.9
20260503012808 68 199 3.0 7.0 0.00 0.00 0.00 66 1010.8
20260503012307 68 197 2.0 3.0 0.00 0.00 0.00 66 1010.8
20260503011307 69 210 1.0 2.0 0.00 0.00 0.00 66 1010.7
20260503010307 69 194 1.0 3.0 0.00 0.00 0.00 65 1010.6
20260503005807 68 196 1.0 3.0 0.00 0.00 0.00 66 1010.6
20260503005307 68 196 2.0 3.0 0.00 0.00 0.00 65 1010.6
20260503004307 69 229 1.0 3.0 0.00 0.00 0.00 64 1010.6
20260503003807 69 246 2.0 5.0 0.00 0.00 0.00 66 1010.6
20260503003307 69 236 3.0 3.0 0.00 0.00 0.00 64 1010.6
20260503002807 69 244 2.0 3.0 0.00 0.00 0.00 65 1010.6
20260503002307 69 291 2.0 3.0 0.00 0.00 0.00 66 1010.7
20260503001807 68 294 3.0 6.0 0.00 0.00 0.00 66 1010.7
20260503001307 68 303 3.0 5.0 0.00 0.00 0.00 65 1010.8
20260503000307 69 245 3.0 6.0 0.00 0.00 0.00 64 1010.9
20260502235807 69 236 2.0 3.0 0.00 0.00 0.00 65 1010.8
20260502234807 68 195 2.0 6.0 0.00 0.00 0.00 66 1010.9
20260502234307 68 261 1.0 6.0 0.00 0.00 0.00 65 1010.9
20260502233807 68 260 4.0 6.0 0.00 0.00 0.00 65 1010.9
20260502233308 69 259 2.0 7.0 0.00 0.00 0.00 65 1011.0
20260502232807 68 192 3.0 6.0 0.00 0.00 0.00 66 1011.1
20260502232307 69 240 3.0 8.0 0.00 0.00 0.00 66 1011.2
20260502231807 69 205 2.0 5.0 0.00 0.00 0.00 65 1011.2
20260502231307 68 212 2.0 6.0 0.00 0.00 0.00 66 1011.3
20260502230306 67 215 3.0 7.0 0.00 0.00 0.00 68 1011.6
20260502225807 67 288 2.0 5.0 0.00 0.00 0.00 68 1011.6
20260502225306 66 271 3.0 9.0 0.00 0.00 0.00 68 1011.7
20260502224807 66 283 3.0 5.0 0.00 0.00 0.00 67 1011.8
20260502224307 67 243 3.0 7.0 0.00 0.00 0.00 67 1011.8
20260502223807 67 221 2.0 5.0 0.00 0.00 0.00 67 1011.9
20260502223306 67 314 3.0 7.0 0.00 0.00 0.00 67 1011.9
20260502222807 67 319 3.0 6.0 0.00 0.00 0.00 68 1012.0
20260502222307 66 264 3.0 7.0 0.00 0.00 0.00 66 1012.0
20260502221807 67 244 5.0 7.0 0.00 0.00 0.00 66 1012.0
20260502221306 67 233 2.0 6.0 0.00 0.00 0.00 68 1012.1
20260502220307 67 273 2.0 5.0 0.00 0.00 0.00 67 1012.2
20260502215807 66 1 2.0 5.0 0.00 0.00 0.00 68 1012.3
20260502215307 65 268 2.0 5.0 0.00 0.00 0.00 68 1012.4
20260502214807 65 261 3.0 8.0 0.00 0.00 0.00 68 1012.5
20260502214307 65 268 3.0 7.0 0.00 0.00 0.00 68 1012.6
20260502213306 64 46 1.0 3.0 0.00 0.00 0.00 69 1012.7